| time (UTC) | temp F | wind direction | speed MPH | gust MPH | rain 1hr in | rain 24hr in | rain mn in | humidity % | barometer mb |
| 20260507023055 | 47 | 0 | 0.0 | 3.0 | 0.00 | 0.00 | 0.00 | 54 | 1014.0 |
| 20260507021556 | 48 | 277 | 0.0 | 3.0 | 0.00 | 0.00 | 0.00 | 53 | 1013.9 |
| 20260507020118 | 48 | 0 | 0.0 | 4.0 | 0.00 | 0.00 | 0.00 | 51 | 1013.8 |
| 20260507014601 | 49 | 267 | 1.0 | 6.0 | 0.00 | 0.00 | 0.00 | 50 | 1013.6 |
| 20260507013056 | 49 | 286 | 0.0 | 6.0 | 0.00 | 0.00 | 0.00 | 50 | 1013.6 |
| 20260507011557 | 49 | 9 | 1.0 | 10.0 | 0.00 | 0.00 | 0.00 | 51 | 1013.4 |
| 20260507010110 | 49 | 263 | 1.0 | 7.0 | 0.00 | 0.00 | 0.00 | 51 | 1013.6 |
| 20260507004557 | 49 | 258 | 1.0 | 6.0 | 0.00 | 0.00 | 0.00 | 52 | 1013.5 |
| 20260507003058 | 49 | 0 | 1.0 | 7.0 | 0.00 | 0.00 | 0.00 | 53 | 1013.4 |
| 20260507001605 | 50 | 282 | 0.0 | 2.0 | 0.00 | 0.00 | 0.00 | 52 | 1013.1 |
| 20260507000059 | 50 | 0 | 0.0 | 3.0 | 0.00 | 0.00 | 0.00 | 51 | 1013.1 |
| 20260506234600 | 50 | 221 | 0.0 | 3.0 | 0.00 | 0.00 | 0.00 | 50 | 1013.1 |
| 20260506233100 | 51 | 252 | 0.0 | 3.0 | 0.00 | 0.00 | 0.00 | 51 | 1013.0 |
| 20260506231610 | 51 | 284 | 0.0 | 4.0 | 0.00 | 0.00 | 0.00 | 50 | 1012.9 |
| 20260506230114 | 52 | 339 | 0.0 | 5.0 | 0.00 | 0.00 | 0.00 | 49 | 1012.9 |
| 20260506224556 | 52 | 360 | 0.0 | 4.0 | 0.00 | 0.00 | 0.00 | 51 | 1012.9 |
| 20260506223100 | 52 | 0 | 2.0 | 5.0 | 0.00 | 0.00 | 0.00 | 48 | 1013.0 |
| 20260506221619 | 52 | 0 | 1.0 | 6.0 | 0.00 | 0.00 | 0.00 | 50 | 1013.1 |
| 20260506220124 | 52 | 345 | 2.0 | 7.0 | 0.00 | 0.00 | 0.00 | 50 | 1013.0 |
| 20260506214557 | 52 | 360 | 3.0 | 8.0 | 0.00 | 0.00 | 0.00 | 47 | 1012.9 |
| 20260506213110 | 52 | 360 | 1.0 | 9.0 | 0.00 | 0.00 | 0.00 | 52 | 1012.9 |
| 20260506211600 | 52 | 360 | 2.0 | 6.0 | 0.00 | 0.00 | 0.00 | 51 | 1013.0 |
| 20260506210106 | 52 | 360 | 1.0 | 9.0 | 0.00 | 0.00 | 0.00 | 50 | 1012.9 |
| 20260506204607 | 52 | 360 | 2.0 | 9.0 | 0.00 | 0.00 | 0.00 | 50 | 1012.9 |
| 20260506203058 | 52 | 66 | 1.0 | 8.0 | 0.00 | 0.00 | 0.00 | 50 | 1013.1 |
| 20260506201558 | 52 | 360 | 3.0 | 8.0 | 0.00 | 0.00 | 0.00 | 48 | 1012.9 |
| 20260506194609 | 52 | 360 | 3.0 | 9.0 | 0.00 | 0.00 | 0.00 | 48 | 1013.2 |
| 20260506193104 | 52 | 360 | 4.0 | 10.0 | 0.00 | 0.00 | 0.00 | 50 | 1013.3 |
| 20260506191619 | 51 | 21 | 4.0 | 12.0 | 0.00 | 0.00 | 0.00 | 50 | 1013.5 |
| 20260506190058 | 51 | 360 | 3.0 | 8.0 | 0.00 | 0.00 | 0.00 | 51 | 1013.5 |
| 20260506184627 | 50 | 323 | 3.0 | 10.0 | 0.00 | 0.00 | 0.00 | 53 | 1013.3 |
| 20260506183114 | 50 | 352 | 5.0 | 11.0 | 0.00 | 0.00 | 0.00 | 52 | 1013.2 |
| 20260506181600 | 51 | 360 | 2.0 | 10.0 | 0.00 | 0.00 | 0.00 | 50 | 1013.2 |
| 20260506174557 | 50 | 333 | 2.0 | 6.0 | 0.00 | 0.00 | 0.00 | 53 | 1013.4 |
| 20260506173100 | 50 | 360 | 2.0 | 10.0 | 0.00 | 0.00 | 0.00 | 52 | 1013.8 |
| 20260506171607 | 50 | 360 | 3.0 | 12.0 | 0.00 | 0.00 | 0.00 | 54 | 1013.8 |
| 20260506170100 | 50 | 326 | 4.0 | 8.0 | 0.00 | 0.00 | 0.00 | 55 | 1013.5 |
| 20260506164555 | 49 | 343 | 3.0 | 10.0 | 0.00 | 0.00 | 0.00 | 57 | 1013.6 |
| 20260506163107 | 49 | 360 | 6.0 | 12.0 | 0.00 | 0.00 | 0.00 | 57 | 1013.5 |
| 20260506161557 | 49 | 17 | 6.0 | 14.0 | 0.00 | 0.00 | 0.00 | 56 | 1013.6 |
| 20260506160109 | 49 | 360 | 2.0 | 11.0 | 0.00 | 0.00 | 0.00 | 59 | 1013.6 |
| 20260506154558 | 49 | 360 | 2.0 | 10.0 | 0.00 | 0.01 | 0.00 | 57 | 1013.4 |
| 20260506153057 | 50 | 324 | 3.0 | 11.0 | 0.00 | 0.01 | 0.00 | 58 | 1013.2 |
| 20260506151557 | 49 | 279 | 4.0 | 11.0 | 0.00 | 0.01 | 0.00 | 61 | 1013.2 |
| 20260506150057 | 49 | 339 | 2.0 | 9.0 | 0.00 | 0.01 | 0.00 | 59 | 1013.1 |
| 20260506144604 | 48 | 355 | 3.0 | 10.0 | 0.00 | 0.01 | 0.00 | 66 | 1013.0 |
| 20260506143109 | 47 | 269 | 3.0 | 8.0 | 0.00 | 0.01 | 0.00 | 64 | 1012.8 |
| 20260506141602 | 47 | 315 | 2.0 | 11.0 | 0.00 | 0.01 | 0.00 | 67 | 1012.7 |
| 20260506140111 | 46 | 44 | 4.0 | 11.0 | 0.00 | 0.01 | 0.00 | 70 | 1012.5 |
| 20260506134604 | 47 | 360 | 3.0 | 8.0 | 0.00 | 0.01 | 0.00 | 71 | 1012.4 |
| 20260506133106 | 47 | 360 | 2.0 | 8.0 | 0.00 | 0.01 | 0.00 | 73 | 1012.2 |
| 20260506131618 | 46 | 355 | 2.0 | 9.0 | 0.00 | 0.01 | 0.00 | 71 | 1012.1 |
| 20260506124600 | 45 | 360 | 3.0 | 9.0 | 0.00 | 0.01 | 0.00 | 69 | 1011.8 |
| 20260506123058 | 44 | 360 | 2.0 | 8.0 | 0.00 | 0.01 | 0.00 | 70 | 1011.5 |
| 20260506121601 | 43 | 360 | 3.0 | 9.0 | 0.00 | 0.01 | 0.00 | 70 | 1011.4 |
| 20260506120105 | 43 | 0 | 2.0 | 8.0 | 0.00 | 0.01 | 0.00 | 70 | 1011.3 |
| 20260506114610 | 43 | 360 | 2.0 | 6.0 | 0.00 | 0.01 | 0.00 | 69 | 1011.2 |
| 20260506113057 | 42 | 312 | 2.0 | 5.0 | 0.00 | 0.01 | 0.00 | 70 | 1011.0 |
| 20260506111557 | 42 | 0 | 1.0 | 5.0 | 0.00 | 0.01 | 0.00 | 68 | 1010.8 |
| 20260506110058 | 43 | 333 | 1.0 | 3.0 | 0.00 | 0.01 | 0.00 | 67 | 1010.7 |
| 20260506104601 | 43 | 337 | 1.0 | 4.0 | 0.00 | 0.01 | 0.00 | 66 | 1010.3 |
| 20260506103100 | 44 | 346 | 2.0 | 4.0 | 0.00 | 0.01 | 0.00 | 64 | 1010.3 |
| 20260506101557 | 44 | 335 | 2.0 | 5.0 | 0.00 | 0.01 | 0.00 | 63 | 1010.3 |
| 20260506100114 | 45 | 327 | 3.0 | 5.0 | 0.00 | 0.01 | 0.00 | 62 | 1010.0 |
| 20260506094600 | 45 | 325 | 2.0 | 5.0 | 0.00 | 0.01 | 0.00 | 61 | 1009.7 |
| 20260506093100 | 45 | 355 | 2.0 | 9.0 | 0.00 | 0.01 | 0.00 | 61 | 1009.4 |
| 20260506091559 | 45 | 335 | 2.0 | 5.0 | 0.00 | 0.01 | 0.00 | 62 | 1009.4 |
| 20260506090100 | 45 | 355 | 2.0 | 5.0 | 0.00 | 0.01 | 0.00 | 62 | 1009.6 |
| 20260506084605 | 45 | 332 | 3.0 | 8.0 | 0.00 | 0.01 | 0.00 | 61 | 1009.2 |
| 20260506083058 | 46 | 265 | 2.0 | 6.0 | 0.00 | 0.01 | 0.00 | 61 | 1009.3 |
| 20260506081555 | 46 | 322 | 3.0 | 8.0 | 0.00 | 0.01 | 0.00 | 62 | 1009.2 |
| 20260506073057 | 46 | 335 | 1.0 | 8.0 | 0.00 | 0.01 | 0.00 | 60 | 1009.3 |
| 20260506071559 | 47 | 340 | 1.0 | 6.0 | 0.00 | 0.01 | 0.00 | 61 | 1009.2 |
| 20260506061556 | 47 | 306 | 2.0 | 6.0 | 0.00 | 0.01 | 0.00 | 61 | 1009.3 |
| 20260506050104 | 47 | 294 | 1.0 | 4.0 | 0.00 | 0.01 | 0.00 | 62 | 1009.4 |
| 20260506044557 | 48 | 315 | 1.0 | 4.0 | 0.00 | 0.06 | 0.00 | 62 | 1009.4 |
| 20260506043056 | 48 | 317 | 1.0 | 3.0 | 0.00 | 0.06 | 0.00 | 62 | 1009.2 |
| 20260506041602 | 48 | 19 | 0.0 | 5.0 | 0.00 | 0.06 | 0.00 | 62 | 1009.2 |
| 20260506040110 | 48 | 0 | 0.0 | 3.0 | 0.00 | 0.06 | 0.00 | 62 | 1009.3 |
| 20260506034601 | 48 | 303 | 0.0 | 3.0 | 0.00 | 0.06 | 0.06 | 62 | 1009.1 |
| 20260506033056 | 48 | 5 | 0.0 | 4.0 | 0.00 | 0.06 | 0.06 | 61 | 1009.2 |
| 20260506031602 | 48 | 309 | 1.0 | 3.0 | 0.00 | 0.06 | 0.06 | 60 | 1009.3 |
| 20260506030121 | 48 | 302 | 0.0 | 4.0 | 0.00 | 0.06 | 0.06 | 60 | 1009.2 |
| 20260506024601 | 48 | 0 | 0.0 | 4.0 | 0.00 | 0.06 | 0.06 | 59 | 1009.2 |